Voltar ao catálogo

NIMBUS 2 DEB

AtivoLEO
NORAD 28205·DEBRIS·🇺🇸 United States

Lançado May 15, 1966 de Vandenberg Space Force Base

Loading…

Próximas Passagens (próximas 24 horas)

TLE

AtualizadoSource: Space-Track

Época: Sep 14, 2026, 10:14 UTC

1 28205U 66040T   26257.42693231  .00001690  00000-0  24851-2 0  9993
2 28205 100.3336 139.3277 0054351  60.4139 116.5319 13.55379303104761

Acompanhe NIMBUS 2 DEB em tempo real com AllMySat

Download on the App Store